Location: Rounton
(54.4000°N, 1.3500°W)
Time: 08:45:59
(UTC+00:00)

Vanguard 1 Rocket - Pass Details

Date: 07 December 2021
Orbit: 651 x 4224 km, 34.3° (Epoch: 19 January)

Event Time Altitude Azimuth Distance (km) Brightness Sun altitude
Rises 07:21:25 0° 267° (W) 6,105 11.1 -6.9°
Reaches altitude 10° 07:26:01 10° 255° (WSW) 5,601 11.0 -6.3°
Maximum altitude 07:39:09 25° 209° (SSW) 5,524 11.4 -4.7°
Drops below altitude 10° 07:56:30 10° 165° (SSE) 7,403 12.9 -2.6°
Sets 08:04:14 0° 155° (SSE) 8,433 13.7 -1.7°
